Location: Catacaguana
(10.4120°N, 66.7591°W)
Time: 04:18:17
(UTC+00:00)

Cosmos 1869 - Pass Details

Date: 27 May 2022
Orbit: 515 x 558 km, 82.5° (Epoch: 24 June)

Event Time Altitude Azimuth Distance (km) Brightness Sun altitude
Rises 09:01:33 0° 346° (NNW) 2,638 6.9 -14.9°
Reaches altitude 10° 09:03:46 10° 339° (NNW) 1,746 5.9 -14.4°
Maximum altitude 09:07:24 43° 267° (W) 727 3.5 -13.6°
Drops below altitude 10° 09:11:02 10° 194° (SSW) 1,736 5.5 -12.8°
Enters shadow 09:11:52 - 191° (S) 2,071 5.9 -12.6°
